This is the latest recevied weather packets stored in our database for station/object DL2GPS-3. If no packets are shown the sender has not sent any weather packets the latest 10 day(s).
| Time | Temp. | Humidity | Pressure | Rain* | Wind** | Luminosity | Snow |
|---|---|---|---|---|---|---|---|
| 1788657062 | 11.11° C | 88% | 1029.5 hPa | - | - | - | - |
| 1788656456 | 11.11° C | 91% | 1029.6 hPa | - | - | - | - |
| 1788655852 | 11.11° C | 92% | 1029.6 hPa | - | - | - | - |
| 1788655247 | 11.11° C | 92% | 1029.5 hPa | - | - | - | - |
| 1788654642 | 11.11° C | 89% | 1029.6 hPa | - | - | - | - |
| 1788654037 | 11.67° C | 91% | 1029.5 hPa | - | - | - | - |
| 1788653432 | 11.67° C | 88% | 1029.6 hPa | - | - | - | - |
| 1788652827 | 12.22° C | 89% | 1029.6 hPa | - | - | - | - |
| 1788652222 | 12.22° C | 90% | 1029.8 hPa | - | - | - | - |
| 1788651617 | 12.22° C | 89% | 1029.7 hPa | - | - | - | - |
| 1788651041 | 12.22° C | 88% | 1029.7 hPa | - | - | - | - |
| 1788650407 | 11.67° C | 90% | 1029.7 hPa | - | - | - | - |
| 1788649802 | 12.22° C | 92% | 1029.8 hPa | - | - | - | - |
| 1788649196 | 12.22° C | 90% | 1029.9 hPa | - | - | - | - |
| 1788648591 | 12.22° C | 90% | 1030 hPa | - | - | - | - |
| 1788647987 | 12.22° C | 90% | 1030 hPa | - | - | - | - |
| 1788647382 | 12.78° C | 87% | 1029.9 hPa | - | - | - | - |
| 1788646776 | 12.78° C | 91% | 1029.9 hPa | - | - | - | - |
| 1788646171 | 12.78° C | 90% | 1029.9 hPa | - | - | - | - |
| 1788645566 | 13.33° C | 89% | 1029.9 hPa | - | - | - | - |
| 1788644960 | 13.33° C | 91% | 1029.8 hPa | - | - | - | - |
| 1788644356 | 13.33° C | 87% | 1029.8 hPa | - | - | - | - |
| 1788643751 | 13.89° C | 89% | 1029.8 hPa | - | - | - | - |
| 1788643146 | 13.89° C | 90% | 1029.8 hPa | - | - | - | - |
| 1788642541 | 13.89° C | 88% | 1029.8 hPa | - | - | - | - |
* Rain since midnight (hover to see other rain measurements)
** Current wind speed in m/s (hover to see current wind gust speed)